WetterOnline ( http://www.wetteronline.de )

Wetter aktuell Neumünster

Aktuelles Wetter: Itzehoe (26m)

6-stündlich | Neueste Meldungen
Ortszeit Temperatur Wetter
Mo, 25.06. 2:00 12.4° C bedeckt
So, 24.06. 20:00 14.5° C bewölkt
So, 24.06. 14:00 14.6° C bedeckt
So, 24.06. 8:00 12.1° C bedeckt
So, 24.06. 2:00 11.7° C bedeckt
Sa, 23.06. 20:00 12.4° C bedeckt
Sa, 23.06. 14:00 13.7° C bedeckt
Sa, 23.06. 8:00 12.5° C bedeckt
Ortszeit Temperatur Wetter
Mo, 25.06. 5:30 13.2° C bedeckt
Mo, 25.06. 5:20 13.2° C bedeckt
Mo, 25.06. 5:10 13.1° C bedeckt
Mo, 25.06. 5:00 12.8° C bedeckt
Mo, 25.06. 4:50 12.8° C bedeckt
Mo, 25.06. 4:40 12.6° C bedeckt
Mo, 25.06. 4:30 12.4° C bedeckt
Mo, 25.06. 4:00 12.3° C bewölkt
Mo, 25.06. 3:30 12.3° C bedeckt
Mo, 25.06. 3:00 12.3° C bewölkt
Mo, 25.06. 2:30 12.4° C bedeckt
Ortszeit Relative Feuchte Sichtweite
Mo, 25.06. 2:00 92% 22 km
So, 24.06. 20:00 81% 30 km
So, 24.06. 14:00 82% 50 km
So, 24.06. 8:00 95% 3.4 km
So, 24.06. 2:00 95% 8 km
Sa, 23.06. 20:00 95% 5.0 km
Sa, 23.06. 14:00 87% 14 km
Sa, 23.06. 8:00 88% 25 km
Ortszeit Relative Feuchte Sichtweite
Mo, 25.06. 5:30 92% 19 km
Mo, 25.06. 5:20 92% -
Mo, 25.06. 5:10 92% -
Mo, 25.06. 5:00 94% 16 km
Mo, 25.06. 4:50 94% -
Mo, 25.06. 4:40 95% -
Mo, 25.06. 4:30 95% 15 km
Mo, 25.06. 4:00 95% 16 km
Mo, 25.06. 3:30 94% 17 km
Mo, 25.06. 3:00 94% 20 km
Mo, 25.06. 2:30 93% 23 km
Ortszeit Niederschlagsmenge Niederschlagsart
Mo, 25.06. 2:00 0.0 l/m2 in 6 Std. -
So, 24.06. 20:00 1 l/m2 in 12 Std. -
So, 24.06. 14:00 1 l/m2 in 6 Std. -
So, 24.06. 8:00 0.4 l/m2 in 12 Std. -
So, 24.06. 2:00 0.3 l/m2 in 6 Std. -
Sa, 23.06. 20:00 2 l/m2 in 12 Std. -
Sa, 23.06. 14:00 1 l/m2 in 6 Std. -
Sa, 23.06. 8:00 1 l/m2 in 12 Std. -
Ortszeit Niederschlagsmenge Niederschlagsart
Mo, 25.06. 5:30 0.0 l/m2 in 1 Std. -
Mo, 25.06. 5:20 keine Meldung -
Mo, 25.06. 5:10 keine Meldung -
Mo, 25.06. 5:00 0.0 l/m2 in 1 Std. -
Mo, 25.06. 4:50 keine Meldung -
Mo, 25.06. 4:40 keine Meldung -
Mo, 25.06. 4:30 0.0 l/m2 in 1 Std. -
Mo, 25.06. 4:00 0.0 l/m2 in 1 Std. -
Mo, 25.06. 3:30 0.0 l/m2 in 1 Std. -
Mo, 25.06. 3:00 0.0 l/m2 in 1 Std. -
Mo, 25.06. 2:30 0.0 l/m2 in 1 Std. -
Ortszeit Stärke Spitze Richtung
km/h Bft. km/h Grad Sektor
Mo, 25.06. 2:00 6 1 19 330° NW
So, 24.06. 20:00 9 2 31 330° NW
So, 24.06. 14:00 14 3 29 330° NW
So, 24.06. 8:00 7 2 22 320° NW
So, 24.06. 2:00 6 1 22 300° NW
Sa, 23.06. 20:00 13 3 37 320° NW
Sa, 23.06. 14:00 18 3 47 330° NW
Sa, 23.06. 8:00 18 3 40 330° NW
Ortszeit Stärke Spitze Richtung
km/h Bft. km/h Grad Sektor
Mo, 25.06. 5:30 9 2 15 330° NW
Mo, 25.06. 5:20 9 2 - 330° NW
Mo, 25.06. 5:10 6 1 - 320° NW
Mo, 25.06. 5:00 4 1 7 310° NW
Mo, 25.06. 4:50 4 1 - 310° NW
Mo, 25.06. 4:40 2 1 - 250° W
Mo, 25.06. 4:30 0 0 4 - -
Mo, 25.06. 4:00 2 1 6 190° S
Mo, 25.06. 3:30 4 1 7 240° SW
Mo, 25.06. 3:00 2 1 11 170° S
Mo, 25.06. 2:30 4 1 11 330° NW
Ortszeit Untergrenze Bedeckung Gattung
total tief tief mittel hoch
Mo, 25.06. 2:00 360 m 8/8 8/8 - - -
So, 24.06. 20:00 690 m 8/8 7/8 - - -
So, 24.06. 14:00 540 m 8/8 8/8 - - -
So, 24.06. 8:00 180 m 8/8 8/8 - - -
So, 24.06. 2:00 360 m 8/8 8/8 - - -
Sa, 23.06. 20:00 240 m 8/8 8/8 - - -
Sa, 23.06. 14:00 480 m 8/8 8/8 - - -
Sa, 23.06. 8:00 330 m 8/8 8/8 - - -
Ortszeit Bedeckungsgrad in Achtel und Wolkenuntergrenze
Mo, 25.06. 5:30 8(330m)
Mo, 25.06. 5:20 8(330m)
Mo, 25.06. 5:10 8(300m)
Mo, 25.06. 5:00 8(270m)
Mo, 25.06. 4:50 8(270m)
Mo, 25.06. 4:40 8(270m)
Mo, 25.06. 4:30 8(330m)
Mo, 25.06. 4:00 7(330m) 8(6300m)
Mo, 25.06. 3:30 8(330m) 8(6300m)
Mo, 25.06. 3:00 6(330m) 8(6000m)
Mo, 25.06. 2:30 8(330m) 8(6300m)
Ortszeit Luftdruck NN (hPa) Tendenz (hPa in 3 Std.)
Mo, 25.06. 2:00 1020 + 0,4
So, 24.06. 20:00 1019 - 0,4
So, 24.06. 14:00 1019 - 0,1
So, 24.06. 8:00 1020 + 0,2
So, 24.06. 2:00 1021 - 0,8
Sa, 23.06. 20:00 1021 - 0,5
Sa, 23.06. 14:00 1021 + 0,3
Sa, 23.06. 8:00 1020 + 0,5
Ortszeit Luftdruck NN (hPa) Tendenz (hPa in 3 Std.)
Mo, 25.06. 5:30 1020 + 0,1
Mo, 25.06. 5:20 1020 keine Meldung
Mo, 25.06. 5:10 1020 keine Meldung
Mo, 25.06. 5:00 1020 - 0,4
Mo, 25.06. 4:50 1020 keine Meldung
Mo, 25.06. 4:40 1020 keine Meldung
Mo, 25.06. 4:30 1020 - 0,4
Mo, 25.06. 4:00 1020 - 0,2
Mo, 25.06. 3:30 1019 - 0,2
Mo, 25.06. 3:00 1020 - 0,2
Mo, 25.06. 2:30 1020 - 0,1
Ortszeit Schneehöhe (cm)
Mo, 25.06. 2:00 -
So, 24.06. 20:00 -
So, 24.06. 14:00 -
So, 24.06. 8:00 -
So, 24.06. 2:00 -
Sa, 23.06. 20:00 -
Sa, 23.06. 14:00 -
Sa, 23.06. 8:00 -
Ortszeit Schneehöhe (cm)
Mo, 25.06. 5:30 -
Mo, 25.06. 5:20 -
Mo, 25.06. 5:10 -
Mo, 25.06. 5:00 -
Mo, 25.06. 4:50 -
Mo, 25.06. 4:40 -
Mo, 25.06. 4:30 -
Mo, 25.06. 4:00 -
Mo, 25.06. 3:30 -
Mo, 25.06. 3:00 -
Mo, 25.06. 2:30 -
Link zu dieser Seite / Seite empfehlen

Das Wetter in ...